Location: C�mpuri de-Sus
(45.9500°N, 22.5500°E)
Time: 02:20:12
(UTC+00:00)

Cosmos 839 Rocket - Pass Details

Date: 01 June 2022
Orbit: 968 x 2085 km, 65.9° (Epoch: 06 July)

Event Time Altitude Azimuth Distance (km) Brightness Sun altitude
Rises 21:43:40 0° 325° (NW) 3,691 8.2 -21.2°
Reaches altitude 10° 21:46:05 10° 327° (NNW) 2,780 7.3 -21.3°
Maximum altitude 21:52:30 82° 55° (NE) 1,121 4.3 -21.4°
Enters shadow 21:56:27 30° 140° (SE) 1,987 5.1 -21.5°
